This is the latest recevied weather packets stored in our database for station/object KF5WCW-1. If no packets are shown the sender has not sent any weather packets the latest 10 day(s).
| Time | Temp. | Humidity | Pressure | Rain* | Wind** | Luminosity | Snow |
|---|---|---|---|---|---|---|---|
| 1777776975 | 11.11° C | 43% | 0 hPa | 0 mm | - | - | - |
| 1777776675 | 10.56° C | 42% | 0 hPa | 0 mm | - | - | - |
| 1777776375 | 11.11° C | 45% | 0 hPa | 0 mm | - | - | - |
| 1777776075 | 11.11° C | 44% | 0 hPa | 0 mm | - | - | - |
| 1777775775 | 11.11° C | 43% | 0 hPa | 0 mm | - | - | - |
| 1777775475 | 11.67° C | 43% | 0 hPa | 0 mm | - | - | - |
| 1777775175 | 12.22° C | 37% | 0 hPa | 0 mm | - | - | - |
| 1777774875 | 12.22° C | 36% | 0 hPa | 0 mm | - | - | - |
| 1777774575 | 12.22° C | 36% | 0 hPa | 0 mm | - | - | - |
| 1777774275 | 12.78° C | 35% | 0 hPa | 0 mm | - | - | - |
| 1777773975 | 12.78° C | 37% | 0 hPa | 0 mm | - | - | - |
| 1777773675 | 12.78° C | 33% | 0 hPa | 0 mm | - | - | - |
| 1777773375 | 12.78° C | 36% | 0 hPa | 0 mm | - | - | - |
| 1777773075 | 12.22° C | 36% | 0 hPa | 0 mm | - | - | - |
| 1777772775 | 12.78° C | 36% | 0 hPa | 0 mm | - | - | - |
| 1777772475 | 12.78° C | 36% | 0 hPa | 0 mm | - | - | - |
| 1777772175 | 12.78° C | 36% | 0 hPa | 0 mm | - | - | - |
| 1777771875 | 13.33° C | 33% | 0 hPa | 0 mm | - | - | - |
| 1777771575 | 13.33° C | 33% | 0 hPa | 0 mm | - | - | - |
| 1777771275 | 13.89° C | 32% | 0 hPa | 0 mm | - | - | - |
| 1777770975 | 13.89° C | 30% | 0 hPa | 0 mm | - | - | - |
| 1777770675 | 13.89° C | 29% | 0 hPa | 0 mm | - | - | - |
| 1777770375 | 13.89° C | 30% | 0 hPa | 0 mm | - | - | - |
| 1777770075 | 13.89° C | 33% | 0 hPa | 0 mm | - | - | - |
| 1777769775 | 14.44° C | 32% | 0 hPa | 0 mm | - | - | - |
* Rain latest hour (hover to see other rain measurements)
** Current wind speed in m/s (hover to see current wind gust speed)